Reflectivity
-20 -20 -20 -20 -20 -20 -20 -20 -20 -20 -20 -20 -20 -20 -20 -20 -20 -20 -20 -20 -20 -20 -20 -20 -20 -20 -20 -20 -20 -20 -20 -20
-20 -20 -20 -20 -20 -20 -20 -20 -20 -20 -20 -20 -20 -20 -20 -20 -20 -20 -20 -20 -20 -20 -20 -20 -20 -20 -20 -20 -20 -20 -20 -20
-20 -20 -20 -20 -20 -20 -20 -20 -20 -20 -20 -20 -20 -20 -20 -20 -20 -20 -20 -20 -20 -20 -20 -20 -20 -20 -20 -20 -20 -20 -20 -20
-20 -20 -20 -20 -20 -20 -20 -20 -20 -20 -20 -20 -20 -20 -20 -20 -20 -20 -20 -20 -20 -20 -20 -20 -20 -20 -20 -20 -20 -20 -20 -20
-20 -20 -20 -20 -20 -20 -20 -20 -20 -20 -20 -20 -20 -20 -20 -20 -20 -20 -20 -20 -20 -20 -20 -20 -20 -20 -20 -20 -20 -20 -20 -20
-20 -20 -20 -20 -20 -20 -20 -20 -20 -20 -20 -20 -20 -20 -20 -20 -20 -20 -20 -20 -20 -20 -20 -20 -20 -20 -20 -20 -20 -20 -20 -20
-20 -20 -20 -20 -20 -20 -20 -20 -20 -20 -20 -20 -20 -20 -20 -20 -20 -20 -20 -20 -20 -20 -20 -20 -20 -20 -20 -20 -20 -20 -20 -20
-20 -20 -20 -20 -20 -20 -20 -20 -20 -20 -20 -20 -20 -20 -20 -20 -20 -20 -20 -20 -20 -20 -20 -20 -20 -20 -20 -20 -20 -20 -20 -20
-20 -19 -2 -20 -20 -20 -20 -20 -20 -20 -20 -20 -20 -20 -20 -20 -20 -20 -20 -20 -20 -20 -20 -20 -20 -20 -20 -20 -20 -20 -20 -20
30 25 23 25 10 6 -20 -20 -20 -20 -20 -20 -20 -20 -20 -20 -20 -20 -20 -20 -20 -20 -20 -20 -20 -20 -20 -20 -20 -20 -20 -20
29 27 22 38 24 25 -9 -20 -20 -20 -20 -20 -20 -20 -20 -20 -20 -20 -20 -20 -20 -20 -20 -20 -20 -20 -20 -20 -20 -20 -20 -20
29 29 29 28 17 7 -20 -20 -20 -20 -20 -20 -20 -20 -19 -7 -1 -20 -20 -20 -20 -20 -20 -20 -20 -20 -20 -20 -20 -20 -20 -20
29 28 11 -20 -17 -20 -20 -20 8 15 -7 1 -9 11 10 -16 -20 -20 -20 -20 -20 -20 -20 -20 -20 -20 -20 -20 -20 -20 -20 -20
-20 -20 -20 -20 -14 -15 2 -20 -20 -17 -8 -15 -18 -20 -20 -20 -20 -20 -20 -20 -20 -20 -20 -20 -20 -20 -20 -20 -20 -20 -20 -20
-20 -20 -20 -20 -0 -20 -20 -20 -20 -20 -20 -20 -20 -20 -20 -20 -20 -20 -20 -20 -20 -20 -20 -20 -20 -20 -20 -20 -20 -20 -20 -20
-20 -20 -20 -20 -20 -20 -20 -20 -20 -20 -20 -20 -20 -20 -20 -20 -20 -1 -15 -20 -20 -20 -20 -20 -20 -20 -20 -20 -20 -20 -20 -20
-20 -20 -20 -20 -20 -20 -20 -20 -20 -20 -20 -20 -20 -20 -20 -20 -20 -20 -20 -20 -20 -20 -20 -20 -20 -20 -20 -20 -20 -20 -20 8
-20 -20 -20 -20 -20 -20 -20 -20 -20 -20 -20 -20 -20 -20 -20 -20 -20 -20 -20 -20 -20 -20 -20 -20 -20 -20 -20 -20 -20 4 5 16
-20 -20 -20 -20 -20 -20 -20 -20 -20 -20 -20 -20 -20 -20 -20 -20 -20 -20 -20 -20 -20 -20 -20 -20 -20 -20 -20 -20 -20 -20 -14 -6
-20 -20 -20 -20 -20 -20 -20 -20 -20 -20 -20 -20 -20 -20 -20 -20 -20 -20 -20 -12 -20 -20 -20 -20 -20 -20 -20 -20 -20 -20 -20 1
Wind_Speed
5 6 8 11 10 10 9 10 10 9 8 7 7 7 6 5 2 3 4 3 6 7 7 8 8 9 11 10 9 10 6 4
6 5 5 6 6 10 10 10 10 8 7 8 6 5 3 2 1 1 2 4 5 7 8 9 10 9 9 10 8 8 6 4
5 6 6 5 5 6 7 7 8 7 7 6 3 1 1 2 5 3 4 5 7 7 7 8 9 9 9 7 7 3 4 4
6 6 7 7 6 4 4 4 3 3 2 2 2 2 3 3 5 6 6 8 9 8 9 8 7 4 4 6 3 4 3 3
8 5 5 5 4 4 3 3 3 3 4 3 4 3 2 1 2 3 3 6 4 5 5 4 6 5 4 4 5 5 3 3
10 10 8 6 4 4 4 3 3 3 4 4 4 2 3 3 2 3 3 3 4 4 3 4 5 5 5 6 6 5 4 3
12 8 7 7 5 4 4 4 4 4 4 5 4 4 3 3 2 3 3 3 3 4 4 5 5 6 5 4 5 6 5 3
8 8 6 6 5 5 4 4 4 4 3 1 3 4 4 4 3 3 4 3 3 3 4 4 4 5 6 6 6 5 5 5
5 3 2 4 5 3 3 3 2 3 3 5 6 6 6 4 3 4 4 4 5 3 4 3 4 4 5 5 5 6 6 6
7 4 2 6 5 5 4 4 4 4 4 4 7 7 6 5 4 4 4 4 3 4 3 4 4 4 4 5 4 5 7 6
8 7 6 9 7 5 6 6 6 5 5 5 6 6 6 5 4 4 5 4 4 3 4 3 3 5 4 4 5 5 5 5
7 4 5 4 3 5 5 7 6 5 5 5 6 5 7 7 6 6 5 4 5 6 5 3 3 3 5 5 5 5 3 3
6 4 1 2 3 4 5 4 3 5 5 6 6 6 6 5 4 4 3 4 3 3 2 4 3 4 2 5 4 2 4 5
7 7 7 5 4 3 3 3 2 4 3 4 5 5 4 5 3 3 6 5 6 6 4 3 2 4 3 3 4 5 4 6
7 7 8 6 7 4 3 3 3 2 2 3 5 6 6 6 7 6 6 4 4 3 5 5 3 3 4 1 4 3 8 1
6 6 6 4 5 3 4 4 3 2 3 2 3 5 6 5 6 4 4 3 4 3 4 2 3 3 3 3 1 3 4 8
4 6 5 5 5 4 3 5 4 3 3 3 3 3 5 4 5 4 4 3 2 3 3 4 2 1 2 3 2 2 5 4
5 6 5 5 6 6 7 7 5 3 2 2 2 1 1 2 3 4 3 1 1 2 2 2 2 3 3 4 4 4 6 7
6 6 6 6 7 6 6 7 6 5 5 4 4 3 3 3 2 3 2 3 3 2 3 4 3 2 3 4 3 4 3 6
6 6 5 4 4 5 4 5 4 5 6 4 4 4 2 1 2 3 3 4 5 3 2 3 4 4 5 5 3 4 4 4
Wind_Direction
135 139 149 152 150 151 154 153 145 143 141 155 159 156 154 140 129 82 65 13 358 357 10 359 355 0 354 6 17 14 23 6
155 156 144 150 166 170 166 154 147 149 157 166 170 156 155 163 246 13 355 326 335 341 351 344 344 345 348 355 14 20 5 1
165 162 171 172 174 188 161 149 151 163 176 172 142 134 226 277 271 294 314 311 312 324 324 325 327 327 329 356 358 357 11 339
201 184 181 177 171 159 140 146 155 166 179 170 195 230 244 233 278 310 325 327 320 323 331 337 344 322 320 338 325 321 332 307
193 202 204 176 166 162 172 164 166 174 184 205 224 228 262 31 11 8 12 12 11 9 11 3 344 333 328 320 313 312 297 290
195 198 186 190 171 170 170 169 177 196 199 186 154 134 91 70 54 42 52 25 36 17 8 350 358 355 341 326 322 307 307 300
201 186 181 192 196 170 169 194 193 193 180 182 158 123 116 121 86 65 55 47 51 26 19 16 10 2 353 356 337 329 314 303
176 176 184 168 173 181 175 183 196 174 179 127 109 114 105 80 61 48 32 35 36 47 47 21 359 353 344 339 330 326 323 314
129 103 82 141 148 123 136 201 149 126 93 74 77 69 77 83 51 26 15 20 28 30 29 40 14 356 341 331 329 329 325 321
77 98 71 92 71 45 27 29 43 61 57 72 75 74 61 48 32 26 4 23 23 19 3 16 2 357 328 314 318 324 320 327
71 50 16 15 344 89 70 65 67 69 64 59 64 62 58 73 58 30 25 31 30 9 4 44 331 328 319 318 321 309 315 350
79 59 29 28 53 60 67 62 60 56 59 56 52 58 56 58 50 41 31 19 9 4 356 339 297 307 321 317 299 291 11 16
51 39 307 130 48 60 47 49 20 33 40 58 63 68 62 65 63 51 32 48 3 356 325 329 322 352 337 321 275 317 11 358
91 100 117 111 96 114 128 139 99 98 90 61 61 70 73 73 79 45 35 24 16 10 16 334 316 15 340 281 336 318 13 326
133 139 130 134 130 108 78 78 84 78 59 45 31 44 36 35 25 29 29 44 29 354 2 14 337 325 34 104 336 304 331 306
150 141 129 153 155 157 162 178 164 65 78 59 60 50 58 62 77 57 58 44 40 12 22 13 5 354 328 24 329 294 307 307
30 37 32 32 31 43 60 61 69 94 117 131 130 151 133 110 86 106 84 59 43 52 33 31 34 3 337 311 281 272 284 280
59 82 56 73 67 62 87 107 118 117 195 200 207 109 110 111 139 121 122 137 7 329 314 309 298 292 297 290 297 301 311 300
86 84 80 96 98 104 122 141 161 178 206 215 216 211 214 220 180 178 202 213 227 240 286 303 292 275 305 287 266 258 264 305
82 75 72 81 114 142 163 176 196 212 218 214 224 211 201 63 272 243 294 302 293 279 263 288 300 306 307 312 307 314 303 301